Погода в Летнике

Россия / Ростовская область     46°00′09″N   41°16′04″E
темп.,
°C
ветер,
м/с
пор.,
м/с
влажн.,
%
обл.,
%
осадки,
мм/ч
давл.,
гПа
погр.,
м
6 марта, сб
сб600:00+3ююз337824 0.0 101638
03:00+2ююз237017 0.0 101627
06:00+2ю347599 0.0 101554
09:00+5юз4156192 0.0 1015616
12:00+11зюз91551100 0.0 10131233
15:00+13зюз81353100 0.0 10111612
18:00+10зюз81567100 0.1 1011932
21:00+4сз91392100 4.3 1013725
7 марта, вс
вс700:000ссз91393100 2.6 1018818
03:00−2сз6117083 2.8 1022653
06:00−3зсз49730 0.0 1025828
09:00−1зсз57540 0.0 1026964
12:00+2зсз56420 0.0 10251346
15:00+3з57450 0.0 10231523
18:00+1зюз48630 0.0 1022259
21:00−1зюз410730 0.0 1022422
8 марта, пн
пн800:00−1зюз5116733 0.0 1021508
03:000зюз6136117 0.0 1020656
06:00−1юз613660 0.0 1019565
09:00+2зюз913570 0.0 10191247
12:00+5зюз812533 0.0 10171520
15:00+6зюз8116015 0.0 10151571
18:00+4зюз51169100 0.1 1015790
21:00+2зюз6137883 0.1 1016511
9 марта, вт
вт900:00+1зюз6138325 0.0 1016533
03:00+1зюз7139261 0.0 1015674
06:00+2зюз81396100 0.1 1015770
09:00+2з71094100 0.5 1016757
12:00+4зсз7973100 0.7 10161075
15:00+4зсз71058100 0.9 10171541
18:00+1сз6876100 0.3 1018997
21:00−1зсз366767 0.4 1022189
10 марта, ср
ср1000:00−1зюз37660 0.0 1022222
03:00−1зюз38700 0.0 1023324
06:00−1ссз2481100 0.0 1023216
09:00−1св3471100 0.1 1024422
12:00+1в115899 0.0 10231031
15:00+2всв225399 0.0 10221250
18:000всв2260100 0.0 102152
21:00−1всв3467100 0.0 1021137